Location: North Evanston
(42.0634°N, 87.6976°W)
Time: 22:52:03
(UTC+00:00)

Transit 2A - Pass Details

Date: 12 May 2026
Orbit: 595 x 949 km, 66.7° (Epoch: 5 June)

Event Time Altitude Azimuth Distance (km) Brightness Sun altitude
Rises 00:28:01 0° 267° (W) 3,563 10.9 4.8°
Reaches altitude 10° 00:31:55 10° 291° (WNW) 2,572 11.7 4.1°
Maximum altitude 00:35:04 14° 323° (NW) 2,219 9.5 3.5°
Drops below altitude 10° 00:38:07 10° 355° (N) 2,465 9.0 3.0°
Sets 00:41:45 0° 20° (NNE) 3,321 9.3 2.4°
